MysteryTwister C3
NUMBER OF ACTIVE MEMBERS:

11231
Follow us: Facebook Twitter
Dear users, we apologize for the long response times of our server. We are currently in the closing stages of developing a completely redesigned site with much better performance, and we are confident to go live this summer. Thanks for your understanding.
 



Level I Challenges (89)

Page 1 of the challenges in Level I, ordered by date posted (the most recent appear first).

Image Noise

[gerschuetz-02] - 120 users already solved this challenge, 22 are working on it.
 
 
 

Both images in this challenge seem to contain no information at all. Or do they trick us? Find the secret message.
Read more...

Click here to get to the corresponding forum topic to share your opinion.
Click here to download the challenge.
Click here to download the additional file of the challenge.

Author: This email address is being protected from spambots. You need JavaScript enabled to view it.
Published on: 2015-11-20 20:26
Maximum number of attempts for this challenge: 15

All successful users of this challenge

Rank User (#120) Achieved points (Global score) y-m-d - h:m:s

Armin Krauss (argh) 200 (206965) 2015-11-20 21:33:05
Viktor (Veselovský) 200 (169444) 2015-11-20 22:18:11
Robert (rm) 200 (56475) 2015-11-21 00:20:24
Kurt Gebauer (Yokozuna) 200 (286256) 2015-11-21 00:31:36
#5 Rainer Zufall (kiekuk) 200 (56786) 2015-11-21 10:31:52
#6 H. Lautenschlager (helmi) 200 (57600) 2015-11-21 10:52:53
#7 Szabó Zoltán (szabo.z87) 200 (55604) 2015-11-21 13:19:16
#8 Bart den Hartog (Bart13) 200 (150540) 2015-11-21 14:53:34
#9 Andreas Frerichs (Ossili) 200 (33266) 2015-11-21 20:19:22
#10 Michael Möller (michaelm) 200 (256593) 2015-11-21 20:20:32
#11 E.T (Ertheb) 150 (81809) 2015-11-22 09:56:03
#12 Bernhard Gruber (bgr) 150 (22889) 2015-11-22 18:36:46
#13 Karl Schutt (günter) 113 (44374) 2015-11-28 11:50:57
#14 curmudgeon (curmudgeon) 111 (1973) 2015-11-29 20:07:00
#15 Jacques Bedoin (JBAG) 109 (109) 2015-12-01 11:29:25
#16 Claude Vaillancourt (Cl3v3r) 109 (44229) 2015-12-01 18:39:53
#17 Joog (Joog) 107 (1208) 2015-12-04 12:35:52
#18 Jeremy Juenger (The_Shocker_12) 105 (3720) 2015-12-09 23:09:48
#19 S (Zyphe) 104 (13361) 2015-12-15 14:11:01
#20 Dominik M. (Sgt. Pepper) 104 (128575) 2015-12-15 17:42:33
#21 Corneli Keim (cryptina) 103 (703) 2015-12-19 11:37:03
#22 Stefan Noll (MisterTwister) 103 (438) 2015-12-29 12:08:28
#23 T (Wagner) 102 (16988) 2015-12-30 21:55:54
#24 Alain (Integral) 102 (207924) 2016-01-09 17:00:20
#25 Norbert Biermann (Norbert) 102 (47790) 2016-01-12 10:20:39
#26 Hans Joachim Girulat (joregi) 102 (36278) 2016-01-16 15:20:07
#27 Michael (soilfront) 102 (2617) 2016-01-24 14:01:06
#28 zahir mohsen moradi (ariobarzan) 101 (99757) 2016-01-27 22:25:36
#29 HolgerK (HolgerK) 101 (25776) 2016-02-11 00:34:22
#30 tamisrah (tamisrah) 101 (3134) 2016-02-13 21:54:47
#31 TrAsHeR (TrAsHeR) 101 (101) 2016-02-22 20:48:43
#32 Defekt75 (Defekt75) 101 (4325) 2016-02-23 23:44:13
#33 Enrico Geißler (enrico_37) 101 (221) 2016-02-27 22:17:27
#34 Creat1veM1ind (sokrates) 101 (2639) 2016-05-01 00:00:08
#35 Tim Fink (Magellan) 100 (4876) 2016-07-14 04:13:12
#36 Hank (hanky) 100 (24373) 2016-07-27 23:49:32
#37 Hajoe (Tintin-Muc) 100 (6923) 2016-08-02 21:30:26
#38 Erin Meier (Erin198212159) 100 (600) 2016-08-03 21:00:47
#39 Ty (Daddysharky) 100 (200) 2016-08-11 14:53:52
#40 Robert Kosten (Robert Kosten) 100 (2724) 2016-09-06 13:03:40
#41 Hans Peter (hanspeter) 100 (52356) 2016-09-17 12:17:36
#42 Darren (barr306) 100 (1056) 2016-10-27 23:46:12
#43 Yass (Yass) 100 (300) 2016-11-02 22:37:08
#44 Bruns (Triton) 100 (400) 2016-11-12 20:44:18
#45 zuben c3 (zuben-c3) 100 (44417) 2016-11-27 15:22:45
#46 Steffen (stmue) 100 (2911) 2016-11-29 10:56:27
#47 Nicolas (nicosPavlov) 100 (257791) 2016-12-08 13:06:32
#48 Michael (FoM) 100 (58875) 2016-12-12 09:52:43
#49 Ajay Prashant (Ajay_Prashant) 100 (2491) 2017-03-25 22:07:13
#50 Fred (ich_bims_fred) 100 (300) 2017-04-14 11:40:28
#51 Daniel Walder (ibex) 100 (14672) 2017-04-21 21:12:41
#52 chris (c2) 100 (51973) 2017-04-24 14:38:48
#53 Alain Collignon (vexilla72) 100 (123666) 2017-06-14 10:26:56
#54 D3d4lu5 (D3d4lu5) 100 (363488) 2017-06-20 11:40:20
#55 Maria (julesjulchen) 100 (3019) 2017-08-09 21:03:34
#56 Akonia (Akonia12) 100 (12153) 2017-08-15 12:17:51
#57 Kim H. S. (tenchijin) 100 (25468) 2017-08-21 09:06:23
#58 Leonardo Nichele de Aguiar (leonichele) 100 (200) 2017-08-26 18:55:09
#59 Saimon (Pires) 100 (100) 2017-08-26 19:01:04
#60 Michael (cavalleri89) 100 (200) 2017-08-26 19:05:33
#61 David (n1to) 100 (200) 2017-08-28 19:49:50
#62 Raquel Ferreira (rqfrr) 100 (100) 2017-08-31 23:20:47
#63 ayrtonbn (ayrton-01) 100 (200) 2017-09-02 01:22:47
#64 Hanspeter (hapela) 100 (1007) 2017-09-09 09:30:46
#65 J-L Morel (Rossignol) 100 (42130) 2017-09-12 19:16:55
#66 Holo (holo) 100 (200) 2017-10-17 01:24:55
#67 Holger (holger) 100 (812) 2017-12-21 11:22:16
#68 Nofre Tete (noffi) 100 (26507) 2018-02-05 22:19:37
#69 Mir Dim (mir0soft) 100 (79760) 2018-02-10 13:43:35
#70 Manu (manu87) 100 (2979) 2018-02-16 15:26:15
#71 Lara Riegelhofer (larrow_sparrow) 100 (2898) 2018-04-11 14:14:23
#72 Benjamin (200611736) 100 (10186) 2018-04-12 01:15:09
#73 Victor Cueva (Victoralin10) 100 (5282) 2018-04-29 13:34:31
#74 Christian Inci (ch100) 100 (9253) 2018-05-02 01:38:58
#75 John Smith (Froyo10) 100 (1747) 2018-06-18 09:25:38
#76 Diaconu Bogdan (bogdan_walle) 100 (1723) 2018-06-18 12:34:02
#77 Chisiu Simona (chisiu.simona) 100 (200) 2018-06-24 10:58:38
#78 Random Dude (rnd) 100 (103645) 2018-07-23 04:01:55
#79 j.h. (haegarq) 100 (15452) 2018-07-25 13:45:08
#80 Steve Vaillancourt (stvai2) 100 (15041) 2018-07-27 19:47:56
#81 Julian (Lemmynator) 100 (20822) 2018-08-02 23:53:16
#82 A (2h873hcue) 100 (301) 2018-09-05 12:35:27
#83 Ly Mib (lymib) 100 (400) 2018-09-10 21:10:54
#84 Javantea (Javantea) 100 (40816) 2018-10-08 04:24:28
#85 clyto (clytorock) 100 (3595) 2018-11-08 22:13:59
#86 Luigi Tomelli (archstanton) 100 (127538) 2018-12-20 09:56:26
#87 Clemens (16dombrowski) 100 (5136) 2018-12-20 21:02:36
#88 sarah b (silva) 100 (52424) 2019-01-05 10:14:54
#89 George (Theofanidis) 100 (137118) 2019-01-07 18:24:46
#90 David (Fokus_1_U) 100 (200) 2019-02-01 14:30:23
#91 Pierre Robier (tripleedged) 100 (5916) 2019-02-16 18:03:15
#92 Tom (toomderbaumarkt) 100 (600) 2019-02-20 14:30:47
#93 Felix Seifried (FS) 100 (500) 2019-02-20 14:31:07
#94 Tom (187 187 187 187) 100 (400) 2019-02-20 14:31:56
#95 r karoly (r_karoly) 100 (4278) 2019-05-05 11:15:53
#96 ENOENT (ENOENT) 100 (13478) 2019-06-01 21:43:50
#97 Mike (RogueRamblers) 100 (81614) 2019-06-29 01:54:53
#98 david (sexton) 100 (2801) 2019-07-03 21:51:49
#99 Jeff (Fountain) 100 (11472) 2019-07-14 02:31:05
#100 Dr. Peter Uelkes (RandyWaterhouse) 100 (9990) 2019-07-31 07:55:47
#101 Eugene (lim0n) 100 (199334) 2019-09-18 14:15:24
#102 Antares (Antares) 100 (32880) 2020-02-21 13:35:34
#103 KlausG (lösbär) 100 (11811) 2020-03-19 12:27:28
#104 Benjamin Bartl (arenas) 100 (6347) 2020-06-13 22:37:30
#105 Polaris (Polaris) 100 (32963) 2020-08-12 00:16:42
#106 Enigmatic (Enigmatic) 100 (11604) 2020-10-30 18:52:24
#107 Snake (snk) 100 (187783) 2020-11-01 20:12:06
#108 Lorenzo (Casalino) 100 (800) 2020-12-18 12:42:50
#109 Ines (bufo01) 100 (5676) 2021-01-03 18:31:21
#110 Em Doulgerakis (Greko) 100 (193799) 2021-01-20 23:39:37
#111 Alexander W. Janssen (itnomad) 100 (10782) 2021-02-06 16:26:53
#112 Jörg Schwarzwälder (secuso) 100 (2827) 2021-02-28 17:07:50
#113 Somebody (Achidutzu) 100 (16867) 2021-03-01 20:43:37
#114 imad (imad) 100 (3687) 2021-03-30 21:49:56
#115 Michael Ammon (Ammonym) 100 (10120) 2021-04-18 22:33:19
#116 gordon (sir5) 100 (16181) 2021-04-19 05:19:40
#117 Jericho (Jericho) 100 (13458) 2021-05-04 14:16:49
#118 Eric (ExAstris) 100 (56037) 2021-05-07 00:11:37
#119 Claus Appelt (Konubixe) 100 (9647) 2021-05-15 13:45:15
#120 thatbusybeaver (thatbusybeaver) 100 (12456) 2021-07-29 04:59:44
You must be logged in to solve the challenge
Pages [1] 1 Show All  
 
 
powered by the CrypTool project  CrypTool

 

   +++    [21:27 - 24.10.2021] mikinsget solved the Level I challenge 'One-Time Pad with Flaws'    +++    [15:29 - 24.10.2021] Jericho solved the Level I challenge 'Nils away on travel'    +++    [10:32 - 24.10.2021] jerva solved the Level II challenge 'The SZ42 Challenge — Part 13'    +++    [02:01 - 24.10.2021] Jet Sam solved the Level I challenge 'Caesar Encryption'    +++    [00:30 - 24.10.2021] Jet Sam solved the Level I challenge 'Number Sequence — Part 2'    +++